Weather History for Lille, France

Change the Weather History Date:

Friday, March 22, 2013

  Actual Average Record
Temperature  
Mean Temperature 39 °F -  
Max Temperature 46 °F 54 °F 66 °F (2012)
Min Temperature 32 °F 40 °F 30 °F (2006)
Degree Days  
Heating Degree Days 26    
Moisture  
Dew Point 30 °F    
Average Humidity 69    
Maximum Humidity 80    
Minimum Humidity 56    
Precipitation  
Precipitation 0.00 in - - ()
Sea Level Pressure  
Sea Level Pressure 29.87 in    
Wind  
Wind Speed 14 mph ()    
Max Wind Speed 20 mph    
Max Gust Speed -    
Visibility 4.9 miles    
Events      
Averages and records for this station are not official NWS values.
T = Trace of Precipitation, MM = Missing Value Source: Averaged Metar Reports

Daily Weather History Graph

Daily Weather History Graph

Search for Another Location

Airport:

Trip Planner

Search our weather history database for the weather conditions in past years. The results will help you decide how hot, cold, wet, or windy it might be!

Date:

Astronomy

Mar. 22, 2013 Rise Set
Actual Time 6:45 AM CET 7:03 PM CET
Civil Twilight 6:13 AM CET 7:36 PM CET
Nautical Twilight 5:34 AM CET 8:15 PM CET
Astronomical Twilight 4:54 AM CET 8:56 PM CET
Moon 1:49 PM CET (3/22) 4:04 AM CET (3/22)
Length of Visible Light 13h 23m
Length of Day
12h 18m
Waxing Gibbous, 75% of the Moon is Illuminated
Mar 22
Waxing Gibbous
Mar 27
Full
Apr 3
Last Quarter
Apr 10
New
Apr 18
First Quarter

Hourly Weather History & Observations

Time (CET) Temp. Windchill Dew Point Humidity Pressure Visibility Wind Dir Wind Speed Gust Speed Precip Events Conditions
12:00 AM 35.6 °F 26.2 °F 26.6 °F 70% 30.01 in 5.0 mi East 15.0 mph - N/A   Mostly Cloudy
12:30 AM 33.8 °F 25.3 °F 26.6 °F 75% 30.01 in 5.0 mi East 11.5 mph - N/A   Unknown
1:00 AM 34 °F - 25 °F 60% 30.03 in 5 mi East 13.8 mph - -   Clear
1:00 AM 33.8 °F 24.3 °F 24.8 °F 70% 30.01 in 5.0 mi East 13.8 mph - N/A   Unknown
1:30 AM 33.8 °F 25.3 °F 24.8 °F 70% 30.01 in 5.6 mi East 11.5 mph - N/A   Unknown
2:00 AM 33.8 °F 24.3 °F 24.8 °F 70% 30.01 in 5.0 mi East 13.8 mph - N/A   Unknown
2:30 AM 33.8 °F 25.3 °F 24.8 °F 70% 30.01 in 4.3 mi East 11.5 mph - N/A   Unknown
3:00 AM 33.8 °F 25.3 °F 24.8 °F 70% 29.98 in 4.3 mi East 11.5 mph - N/A   Unknown
3:30 AM 32.0 °F 24.2 °F 26.6 °F 80% 29.98 in 3.7 mi East 9.2 mph - N/A   Unknown
4:00 AM 32.0 °F 24.2 °F 26.6 °F 80% 29.98 in 3.7 mi East 9.2 mph - N/A   Unknown
4:30 AM 32.0 °F 22.1 °F 26.6 °F 80% 29.95 in 3.7 mi ENE 13.8 mph - N/A   Unknown
5:00 AM 32.0 °F 22.1 °F 26.6 °F 80% 29.95 in 3.7 mi East 13.8 mph - N/A   Unknown
5:30 AM 32.0 °F 22.5 °F 26.6 °F 80% 29.95 in 3.7 mi East 12.7 mph - N/A   Unknown
6:00 AM 33.8 °F 25.3 °F 26.6 °F 75% 29.95 in 3.7 mi East 11.5 mph - N/A   Unknown
6:30 AM 33.8 °F 25.3 °F 26.6 °F 75% 29.92 in 3.7 mi East 11.5 mph - N/A   Unknown
7:00 AM 33.8 °F 24.3 °F 26.6 °F 75% 29.92 in 3.7 mi East 13.8 mph - N/A   Unknown
7:30 AM 33.8 °F 24.3 °F 26.6 °F 75% 29.92 in 3.7 mi East 13.8 mph - N/A   Unknown
8:00 AM 33.8 °F 24.8 °F 26.6 °F 75% 29.92 in 3.7 mi East 12.7 mph - N/A   Unknown
8:30 AM 33.8 °F 23.5 °F 26.6 °F 75% 29.92 in 3.7 mi East 16.1 mph - N/A   Unknown
9:00 AM 33.8 °F 22.8 °F 26.6 °F 75% 29.89 in 4.3 mi East 18.4 mph - N/A   Unknown
10:00 AM 37.4 °F 28.2 °F 26.6 °F 65% 29.89 in 5.0 mi East 16.1 mph - N/A   Unknown
10:30 AM 37.4 °F 28.2 °F 28.4 °F 70% 29.89 in 5.0 mi East 16.1 mph - N/A   Unknown
11:00 AM 39.2 °F 30.5 °F 28.4 °F 65% 29.89 in 5.0 mi East 16.1 mph - N/A   Unknown
11:30 AM 41.0 °F 32.2 °F 30.2 °F 65% 29.86 in 5.6 mi East 18.4 mph - N/A   Unknown
12:00 PM 42.8 °F 35.1 °F 32.0 °F 66% 29.86 in 5.6 mi East 16.1 mph - N/A   Unknown
12:30 PM 42.8 °F 34.3 °F 32.0 °F 66% 29.86 in 5.6 mi East 19.6 mph - N/A   Unknown
1:00 PM 43 °F - 33 °F 56% 29.86 in 6 mi East 18.4 mph - -   Scattered Clouds
1:00 PM 42.8 °F 34.5 °F 32.0 °F 66% 29.83 in 5.6 mi East 18.4 mph - N/A   Unknown
1:30 PM 42.8 °F 35.1 °F 32.0 °F 66% 29.86 in 5.6 mi East 16.1 mph - N/A   Unknown
2:00 PM 44.6 °F 36.6 °F 33.8 °F 66% 29.83 in 5.6 mi East 19.6 mph - N/A   Unknown
2:30 PM 44.6 °F 36.9 °F 33.8 °F 66% 29.83 in 5.6 mi East 18.4 mph - N/A   Unknown
3:00 PM 44.6 °F 37.2 °F 33.8 °F 66% 29.83 in 5.6 mi East 17.3 mph - N/A   Unknown
3:30 PM 46.4 °F 39.5 °F 33.8 °F 62% 29.80 in 5.6 mi East 17.3 mph - N/A   Unknown
4:00 PM 44.6 °F 36.6 °F 33.8 °F 66% 29.77 in 5.6 mi East 19.6 mph - N/A   Unknown
4:30 PM 46.4 °F 39.0 °F 33.8 °F 62% 29.77 in 5.6 mi East 19.6 mph - N/A   Unknown
5:00 PM 44.6 °F 36.6 °F 33.8 °F 66% 29.77 in 5.6 mi East 19.6 mph - N/A   Unknown
5:30 PM 44.6 °F 36.9 °F 33.8 °F 66% 29.77 in 5.6 mi East 18.4 mph - N/A   Unknown
6:00 PM 42.8 °F 34.3 °F 33.8 °F 70% 29.77 in 5.6 mi East 19.6 mph - N/A   Unknown
6:30 PM 42.8 °F 34.8 °F 32.0 °F 66% 29.77 in 5.0 mi East 17.3 mph - N/A   Unknown
7:00 PM 42 °F - 32 °F 59% 29.78 in 5 mi East 19.6 mph - -   Overcast
7:00 PM 42.8 °F 34.3 °F 32.0 °F 66% 29.77 in 5.0 mi East 19.6 mph - N/A   Unknown
7:30 PM 42.8 °F 34.8 °F 32.0 °F 66% 29.77 in 5.0 mi East 17.3 mph - N/A   Unknown
8:00 PM 42.8 °F 34.3 °F 32.0 °F 66% 29.77 in 5.0 mi East 19.6 mph - N/A   Unknown
8:30 PM 42.8 °F 34.3 °F 32.0 °F 66% 29.77 in - East 19.6 mph - N/A   Clear
9:00 PM 42.8 °F 34.3 °F 32.0 °F 66% 29.77 in - East 19.6 mph - N/A   Clear
9:30 PM 42.8 °F 34.8 °F 32.0 °F 66% 29.77 in - East 17.3 mph - N/A   Clear
10:00 PM 41.0 °F 32.8 °F 32.0 °F 70% 29.77 in - East 16.1 mph - N/A   Clear
10:30 PM 41.0 °F 32.8 °F 32.0 °F 70% 29.77 in - East 16.1 mph - N/A   Clear
11:00 PM 41.0 °F 33.5 °F 32.0 °F 70% 29.77 in - East 13.8 mph - N/A   Clear